This is the latest recevied weather packets stored in our database for station/object KB9MLJ. If no packets are shown the sender has not sent any weather packets the latest 10 day(s).
| Time | Temp. | Humidity | Pressure | Rain* | Wind** | Luminosity | Snow |
|---|---|---|---|---|---|---|---|
| 1777916265 | 25° C | 47% | 1001.3 hPa | 0 mm | - | 734 W/m² | - |
| 1777915962 | 25° C | 47% | 1001.6 hPa | 0 mm | - | 719 W/m² | - |
| 1777915659 | 25.56° C | 49% | 1001.6 hPa | 0 mm | - | 749 W/m² | - |
| 1777915355 | 25° C | 50% | 1001.6 hPa | 0 mm | - | 714 W/m² | - |
| 1777915051 | 24.44° C | 50% | 1001.6 hPa | 0 mm | - | 729 W/m² | - |
| 1777914749 | 24.44° C | 49% | 1002 hPa | 0 mm | - | 154 W/m² | - |
| 1777914446 | 25° C | 49% | 1002 hPa | 0 mm | - | 709 W/m² | - |
| 1777914143 | 23.89° C | 52% | 1002 hPa | 0 mm | - | 707 W/m² | - |
| 1777913839 | 24.44° C | 52% | 1002 hPa | 0 mm | - | 688 W/m² | - |
| 1777913535 | 24.44° C | 53% | 1002 hPa | 0 mm | - | 680 W/m² | - |
| 1777913232 | 23.89° C | 54% | 1002.3 hPa | 0 mm | - | 707 W/m² | - |
| 1777912929 | 23.89° C | 55% | 1002.3 hPa | 0 mm | - | 727 W/m² | - |
| 1777912625 | 23.89° C | 56% | 1002.3 hPa | 0 mm | - | 711 W/m² | - |
| 1777912321 | 23.89° C | 56% | 1002.6 hPa | 0 mm | - | 708 W/m² | - |
| 1777912017 | 23.89° C | 56% | 1002.6 hPa | 0 mm | - | 734 W/m² | - |
| 1777911713 | 23.89° C | 57% | 1002.3 hPa | 0 mm | - | 734 W/m² | - |
| 1777911410 | 23.33° C | 57% | 1002.6 hPa | 0 mm | - | 730 W/m² | - |
| 1777911108 | 23.33° C | 56% | 1002.6 hPa | 0 mm | - | 743 W/m² | - |
| 1777910805 | 23.33° C | 57% | 1002.3 hPa | 0 mm | - | 765 W/m² | - |
| 1777910501 | 23.33° C | 57% | 1002.6 hPa | 0 mm | - | 726 W/m² | - |
| 1777910198 | 22.22° C | 58% | 1002.6 hPa | 0 mm | - | 740 W/m² | - |
| 1777909895 | 22.22° C | 58% | 1002.6 hPa | 0 mm | - | 734 W/m² | - |
| 1777909592 | 22.22° C | 57% | 1003 hPa | 0 mm | - | 728 W/m² | - |
| 1777909289 | 22.22° C | 59% | 1002.6 hPa | 0 mm | - | 744 W/m² | - |
| 1777908987 | 22.22° C | 58% | 1003 hPa | 0 mm | - | 754 W/m² | - |
* Rain latest hour (hover to see other rain measurements)
** Current wind speed in m/s (hover to see current wind gust speed)